Notices

What's New in latest Release from April 7th, 2021:

- Updated Glossary, including Speed of Maximum Gust, and Total Hourly Precipitation

- Updated national and regional climate services offices contacts and prices information

- Addition of station inventory lists for 1981-2010, 1971-2000, and 1961-1990 Normals.

Please note that as of June 10, 2021 UTC dates are available for all years 2004-present, and DBA is working on populating the remaining years (2003 to 1953).

If you haven't already, please take our survey and provide feedback about our website: https://eccc.sondage-survey.ca/f/LanguageSelection.aspx?s=442ca660-fcf1-47c0-95a9-59707d6fd709

Hourly Data Report for November 19, 2017

CARBERRY CS
MANITOBA

49°54'20.900" N
99°21'26.800" W
383.50 m
5010547
71170
WZE

Download Data

Hourly Data (November 2017)
Hourly Data Report for November 19, 2017
TIME
LST
Temp Definition
°C
Dew Point Definition
°C
Rel Hum Definition
%
Precip. Amount Definition
mm

Wind Dir Definition
10's deg

Wind Spd Definition
km/h
Visibility Definition
km
Stn Press Definition
kPa
Hmdx Definition


Wind Chill Definition


Weather Definition


00:00 -13.1 -16.1 78 0.0 25 13   96.89   -20 LegendNANA
01:00 -12.8 -15.9 77 0.0 23 9   96.82   -18 LegendNANA
02:00 -12.8 -15.8 79 0.0 24 8   96.77   -18 LegendNANA
03:00 -11.8 -14.7 79 0.0 23 11   96.75   -18 LegendNANA
04:00 -11.0 -14.0 79 0.0 22 4   96.64   -13 LegendNANA
05:00 -11.0 -13.8 80 0.0 19 8   96.57   -16 LegendNANA
06:00 -10.5 -13.3 80 0.0 22 3   96.59   -12 LegendNANA
07:00 -10.2 -12.9 80 0.0 15 4   96.53   -13 LegendNANA
08:00 -10.2 -12.7 82 0.0 14 5   96.45   -13 LegendNANA
09:00 -9.8 -13.3 75 0.0 10 2   96.44   -11 LegendNANA
10:00 -8.7 -13.2 70 0.0 5 3   96.42   -10 LegendNANA
11:00 -7.6 -12.6 68 0.0 2 4   96.44   -10 LegendNANA
12:00 -6.8 -12.1 66 0.0 28 5   96.40   -9 LegendNANA
13:00 -6.4 -11.0 69 0.0 34 6   96.39   -9 LegendNANA
14:00 -5.9 -11.0 67 0.0 33 4   96.30   -8 LegendNANA
15:00 -6.0 -10.6 70 0.0 35 5   96.21   -8 LegendNANA
16:00 -7.5 -11.8 71 0.0 3 6   96.20   -11 LegendNANA
17:00 -9.3 -12.2 79 0.0   0   96.21     LegendNANA
18:00 -11.4 -13.9 82 0.0 7 6   96.15   -15 LegendNANA
19:00 -11.6 -13.6 85 0.0 9 10   96.03   -17 LegendNANA
20:00 -10.5 -12.7 84 0.0 10 8   95.93   -15 LegendNANA
21:00 -10.8 -12.4 88 0.0 13 7   95.85   -15 LegendNANA
22:00 -8.4 -10.5 85 0.0 11 11   95.69   -14 LegendNANA
23:00 -8.4 -10.2 87 0.0 11 7   95.64   -12 LegendNANA

Notes on Data Quality.

Legend

  • E = Estimated
  • M = Missing
  • NA = Not Available*
  • [empty] = Indicates an unobserved value
Date modified: